Theta_e
308 308 309 311 310 313 314 318 317 315 315 317 316 316 316 316 318 315 307 315 318 324 323 320 320 316 314 311 314 314 304 300 299 297 297 302 300 305 315 312 312 314 313 314 331
308 307 309 310 312 312 314 318 317 315 315 316 316 316 316 317 314 307 316 320 323 326 315 317 316 312 307 309 310 308 304 304 301 298 297 301 301 301 305 311 310 310 311 313 320
307 308 310 311 312 312 316 318 319 317 315 314 315 316 317 317 309 306 320 319 324 325 317 320 319 312 305 308 306 306 303 301 298 301 301 301 300 303 303 301 303 303 307 310 311
306 307 309 311 311 312 315 318 316 315 313 314 316 317 318 313 297 309 319 320 324 321 316 317 314 309 303 301 306 302 305 302 302 301 300 300 303 299 301 300 307 307 309 309 308
306 307 309 310 310 311 313 316 315 314 314 315 317 318 313 306 302 315 320 319 319 315 313 312 311 308 301 302 304 300 300 303 302 300 300 302 300 299 300 305 308 309 310 309 308
306 305 307 309 309 310 311 315 317 314 314 316 318 318 309 298 310 317 314 317 316 312 312 312 310 310 304 302 301 303 302 301 302 301 301 299 298 301 299 304 306 308 308 307 308
305 306 307 308 309 310 310 313 315 316 315 317 318 314 304 298 313 315 314 317 316 314 309 311 311 308 307 301 304 303 298 299 300 299 299 300 295 297 300 303 303 304 303 303 304
306 306 306 308 308 308 309 311 314 317 317 318 318 311 298 311 315 313 314 316 316 314 312 313 313 310 307 306 302 298 298 294 298 299 298 298 294 298 301 301 301 302 302 302 302
306 306 307 307 308 308 309 311 314 317 317 316 312 308 296 311 308 312 312 311 313 313 312 311 312 306 305 299 294 295 291 291 295 300 297 296 295 298 300 300 300 300 301 301 301
305 306 307 307 307 308 309 311 314 317 314 314 310 302 300 300 308 309 312 313 309 308 307 306 303 299 299 297 290 291 291 293 293 298 298 295 293 297 298 299 299 300 300 300 301
305 306 306 307 307 309 307 309 305 303 307 301 300 298 300 307 310 307 311 309 307 304 297 301 295 291 296 300 297 297 295 294 297 300 297 296 296 297 298 297 298 299 299 299 299
305 305 306 306 307 308 306 297 295 297 297 304 304 301 304 306 299 303 309 302 300 294 300 296 291 298 300 299 297 296 294 293 298 299 295 294 294 299 299 297 298 300 299 299 299
304 304 305 306 305 303 298 296 301 302 297 299 303 300 300 304 298 298 304 302 298 295 296 293 295 300 298 295 294 293 293 294 294 295 294 291 290 293 298 299 299 300 301 301 299
304 303 304 307 301 301 296 300 302 304 291 292 297 300 300 302 296 304 304 301 299 295 296 295 298 297 294 294 295 290 296 294 294 292 286 293 283 291 296 297 297 298 300 300 299
303 303 303 306 301 298 299 302 303 303 278 295 296 307 302 295 297 298 304 300 294 295 296 292 293 293 292 293 296 292 296 294 293 291 290 289 285 288 296 294 295 297 298 299 300
302 303 304 301 301 301 304 303 304 286 275 288 295 294 293 294 295 298 298 301 299 295 296 294 296 295 295 297 297 297 294 293 291 289 280 287 285 283 288 293 296 297 298 299 299
301 301 301 302 295 303 304 303 285 280 288 286 289 293 292 290 291 293 292 290 288 284 286 291 292 294 295 293 296 294 289 279 280 279 278 288 285 287 294 296 297 297 297 298 299
300 301 300 300 303 304 303 290 279 283 286 292 291 292 287 291 290 290 289 287 291 290 285 283 281 291 294 293 290 290 289 282 276 279 280 287 281 287 293 292 293 294 296 298 297
298 300 299 298 302 303 295 282 282 284 291 289 290 287 287 290 290 288 286 287 290 291 284 283 284 293 294 295 294 290 286 291 284 281 280 283 287 291 290 289 290 291 296 295 295
296 295 294 299 302 299 287 285 284 291 291 292 285 289 284 286 286 287 286 289 288 292 293 288 282 291 292 293 294 291 293 284 284 273 275 280 282 285 287 289 289 290 293 293 293
294 289 295 299 301 291 283 284 287 292 292 290 287 287 287 287 288 286 286 289 291 291 293 290 286 284 290 287 288 288 287 289 288 284 279 277 281 287 289 290 288 290 293 293 292
292 283 295 299 285 284 282 283 288 290 292 291 292 291 288 290 288 287 286 289 293 292 288 291 288 281 284 291 293 292 289 290 283 281 283 282 282 292 291 291 292 290 292 292 291
289 288 295 294 279 279 283 280 286 287 287 288 288 290 292 289 285 289 290 294 293 292 290 291 284 277 280 285 288 286 290 290 290 289 283 280 282 289 289 288 289 290 290 290 289
288 279 284 288 284 282 279 279 279 288 288 289 288 288 288 287 290 287 289 293 294 293 295 294 287 283 277 280 287 284 287 290 289 284 284 284 286 287 287 288 289 289 289 289 289
287 281 282 276 278 280 282 280 279 278 285 288 286 286 285 284 286 285 289 291 293 294 293 291 282 283 285 286 286 285 286 288 286 288 284 287 287 291 293 293 289 290 289 288 288
283 281 280 281 281 280 281 276 278 282 281 280 282 285 286 283 285 284 285 288 288 291 289 291 282 284 282 286 285 283 286 286 288 288 288 289 288 295 294 293 290 290 289 288 287
289 286 285 283 280 278 278 279 279 282 284 285 283 282 281 284 287 289 289 288 287 285 283 284 284 282 279 283 283 279 284 285 286 288 289 285 290 294 293 293 295 289 290 288 288
Wind_Speed
11 11 12 8 5 9 11 10 13 9 8 11 6 5 2 2 5 3 1 4 5 4 6 6 6 4 7 3 4 3 3 4 6 4 6 7 2 6 10 9 7 6 6 5 7
13 12 11 8 8 10 13 8 14 12 8 9 7 5 3 4 7 4 3 5 7 7 6 7 9 8 3 2 3 3 2 4 4 3 4 8 8 6 3 10 10 6 9 11 9
14 14 14 9 11 13 13 6 16 11 8 7 7 5 4 7 4 4 6 4 6 8 8 2 10 5 4 3 4 5 4 7 4 3 3 6 4 5 8 7 6 5 6 8 9
15 15 16 14 14 13 14 14 12 9 7 7 9 7 4 6 6 3 4 3 5 10 4 8 8 3 3 4 3 1 5 6 3 2 2 3 6 6 9 5 4 7 7 5 7
15 14 16 15 15 15 13 12 6 7 6 7 9 9 4 5 5 2 2 2 5 7 5 5 7 4 5 5 1 3 5 9 7 8 5 6 7 7 7 8 6 8 7 6 6
14 13 14 13 14 14 13 12 9 3 3 8 10 7 6 5 5 2 5 4 6 6 4 1 4 12 8 4 5 2 5 6 2 6 4 4 2 2 3 6 6 7 8 7 8
13 12 14 12 14 14 12 13 13 4 4 7 10 8 2 5 1 3 7 4 4 2 8 8 4 3 10 7 3 2 5 4 3 2 3 4 2 2 9 8 8 8 7 7 6
12 12 13 12 13 12 11 12 12 3 3 6 6 9 4 1 3 5 4 1 2 5 9 4 5 6 5 9 5 3 4 2 5 3 1 2 4 7 8 8 8 8 7 7 6
13 12 12 12 11 12 11 13 10 2 4 5 6 5 6 2 6 3 4 7 4 1 4 1 2 6 5 6 4 1 3 1 1 5 3 5 5 5 6 6 7 7 7 6 6
13 12 12 13 14 13 13 10 7 6 4 6 2 2 3 7 5 3 2 8 4 5 3 3 2 5 4 4 1 4 2 4 4 7 7 6 7 5 7 7 8 9 8 6 6
13 13 13 14 13 12 8 3 3 3 4 7 7 9 6 4 4 4 5 4 3 5 4 5 3 4 9 8 5 2 6 5 5 4 2 12 12 9 11 8 9 8 8 8 7
15 15 14 13 14 8 5 5 2 3 5 6 5 7 4 5 5 6 4 5 8 7 5 2 5 6 6 5 3 2 5 5 2 4 2 7 12 12 10 12 13 10 9 9 8
15 14 15 13 6 6 6 3 3 3 1 3 3 5 2 4 3 8 4 2 8 9 8 5 3 5 6 3 4 4 4 4 3 4 3 5 11 13 11 9 10 9 11 10 13
14 14 15 15 2 2 2 3 2 1 3 3 4 4 3 2 2 4 4 2 5 11 7 7 3 5 7 6 6 5 6 2 5 3 3 6 8 6 15 17 16 14 12 15 13
13 14 12 16 1 3 4 4 4 2 2 4 5 3 4 1 3 4 3 2 6 5 6 1 7 5 6 7 6 1 4 2 3 5 6 6 5 6 6 13 16 17 14 11 13
11 15 13 1 5 5 7 6 2 3 1 1 4 4 5 2 1 4 2 4 3 7 7 5 3 2 5 6 5 4 3 2 1 3 4 11 8 5 4 8 10 12 14 14 13
10 9 9 5 3 7 6 3 4 3 3 2 2 5 7 5 3 4 7 5 5 4 6 7 7 2 1 5 5 5 4 1 2 2 6 1 8 10 13 7 8 8 15 14 12
7 8 4 7 5 5 2 4 2 1 3 5 3 7 7 6 4 6 7 10 13 7 2 8 5 10 8 8 5 10 8 5 4 2 4 2 8 6 3 3 6 4 4 12 11
8 1 2 5 7 3 3 1 2 2 4 5 2 2 6 3 2 5 8 11 9 13 5 4 8 5 11 5 7 8 12 9 7 2 1 6 7 9 5 2 1 3 8 13 13
2 1 3 6 5 2 4 2 2 2 4 4 3 5 5 5 7 6 6 4 9 11 8 5 5 1 4 3 7 4 1 7 3 3 6 7 8 9 5 7 7 6 8 9 10
3 1 2 5 3 3 3 3 2 3 1 2 5 3 6 6 10 7 4 3 5 8 9 4 2 3 4 6 7 4 3 6 7 6 4 3 6 3 4 3 9 8 7 10 11
1 2 3 4 3 1 2 3 4 5 1 2 2 3 5 3 7 7 5 6 7 7 13 7 2 8 8 7 7 12 16 14 6 5 7 7 13 6 7 7 8 9 10 8 9
2 1 1 3 2 3 2 4 2 5 6 5 7 2 4 6 3 5 5 4 5 4 7 7 5 5 6 1 4 5 10 9 13 8 12 5 8 2 6 5 3 9 9 9 11
2 2 2 2 1 2 4 5 3 5 3 5 4 3 1 5 6 3 3 2 3 4 8 5 4 10 14 11 9 7 13 15 15 11 22 18 27 4 4 7 8 8 10 10 12
0 1 1 4 6 5 4 3 4 4 3 3 4 6 6 4 6 8 9 5 2 2 1 5 5 4 13 16 13 14 8 17 18 22 18 29 25 20 16 11 11 14 11 12 14
4 3 1 1 1 9 5 5 7 5 7 6 7 10 11 9 5 2 5 4 2 2 6 7 8 10 19 21 13 16 16 9 17 27 24 28 28 20 8 3 4 12 14 15 15
2 2 2 6 5 6 6 6 8 5 7 4 11 2 4 5 3 3 4 9 9 5 4 5 5 7 14 14 13 16 22 25 22 13 17 20 34 13 12 11 12 14 18 20 20
Wind_Direction
50 25 9 6 32 10 1 359 162 158 171 155 149 132 78 325 302 250 205 358 336 250 286 149 157 122 19 71 321 316 177 167 170 174 98 28 111 35 45 66 51 30 50 330 107
39 27 10 9 47 22 349 336 169 153 170 161 158 147 119 274 262 201 352 333 313 266 251 157 149 121 70 53 2 314 285 119 83 67 73 62 60 63 121 104 94 83 43 29 32
34 21 13 35 43 27 353 101 142 144 148 159 167 161 166 250 206 83 13 317 307 264 264 234 135 95 62 344 5 3 355 110 85 32 354 118 75 19 103 71 38 72 49 41 44
34 25 18 27 33 25 3 125 120 129 159 171 168 171 183 230 139 67 9 315 304 281 231 130 139 102 89 82 33 148 61 87 119 13 359 60 112 86 53 92 74 91 85 77 54
33 29 22 31 27 24 11 39 120 139 161 178 150 171 190 203 84 32 96 205 242 259 157 151 169 122 109 98 54 71 13 100 83 84 70 43 75 111 95 117 115 119 109 98 85
30 27 24 34 30 21 5 13 43 153 181 179 154 176 252 136 311 323 156 160 228 241 142 338 70 89 108 79 61 356 78 29 111 81 82 99 120 193 125 122 127 127 100 69 62
26 28 29 34 18 15 5 11 9 142 186 166 175 222 3 111 280 130 141 200 223 272 77 14 27 353 134 107 146 39 117 118 17 38 98 139 174 198 139 176 156 132 114 88 64
24 27 25 33 21 6 9 10 355 67 139 172 203 260 72 337 350 134 147 140 75 345 87 354 34 96 90 134 111 88 54 156 148 139 153 189 237 148 163 178 161 147 129 125 112
17 19 24 24 18 8 13 355 351 139 137 209 245 260 107 200 120 85 164 154 160 73 41 104 259 104 147 126 85 323 125 180 183 197 142 198 266 136 171 209 171 161 163 149 141
14 13 23 12 10 16 1 342 322 141 184 242 269 238 183 113 117 112 317 145 158 142 138 207 163 149 195 211 160 162 172 185 217 195 224 222 247 168 187 215 208 178 157 166 164
17 11 11 12 21 29 17 1 148 84 41 353 85 77 95 87 195 167 183 132 163 184 163 210 209 183 188 193 72 29 165 197 220 140 272 242 254 211 190 203 224 189 169 174 174
19 12 359 1 34 29 26 68 75 338 94 43 72 70 64 326 108 140 286 193 159 183 170 117 239 201 52 61 103 275 181 212 168 94 150 292 277 265 203 203 204 199 180 175 159
8 7 359 348 345 48 86 78 293 303 25 66 34 76 101 280 106 169 216 200 188 199 198 206 81 192 131 176 200 224 252 223 247 140 219 295 272 238 241 191 205 211 187 180 179
6 1 358 349 3 164 33 316 308 301 91 123 165 100 116 271 100 113 275 330 224 206 186 247 174 169 147 224 206 246 176 271 283 167 260 137 291 251 225 224 197 206 198 185 174
8 357 347 359 71 37 326 330 284 235 116 79 71 324 141 211 99 196 31 316 267 223 166 188 140 172 187 216 207 80 82 135 203 249 275 184 275 272 228 220 211 210 204 186 181
12 8 338 34 63 354 318 299 223 43 218 64 322 165 157 181 53 83 189 267 323 258 225 231 18 257 219 204 214 104 164 166 287 240 280 216 178 256 196 231 232 207 204 193 181
8 13 28 21 40 323 322 282 70 208 298 149 186 180 207 162 165 194 198 196 184 164 211 249 207 148 352 226 184 159 160 315 266 247 237 185 188 246 282 243 221 204 198 187 174
350 354 60 43 344 333 300 52 194 34 215 99 183 178 202 170 226 198 204 213 231 248 230 209 222 165 182 211 172 207 198 178 225 233 307 27 244 259 171 80 42 46 220 156 159
317 232 48 12 343 312 85 192 40 291 119 131 71 158 189 190 328 184 239 227 220 222 229 242 225 129 151 195 204 183 219 239 317 350 354 239 257 287 93 107 207 206 149 158 156
280 200 56 335 337 294 73 149 229 42 332 162 178 194 173 182 210 197 197 227 231 224 228 314 294 90 103 49 283 254 164 204 232 224 241 245 245 243 220 222 184 190 163 153 151
270 213 35 328 283 57 204 147 220 132 245 256 227 196 254 193 199 223 241 209 203 210 205 174 271 355 70 210 187 191 231 236 174 212 226 295 260 239 108 109 181 181 182 160 161
319 81 360 307 82 89 191 183 318 176 134 223 291 294 213 270 197 225 238 247 168 212 210 190 273 242 204 221 224 231 218 215 206 224 220 252 257 241 169 151 148 174 170 164 160
81 67 62 312 191 194 184 294 252 181 212 191 213 32 342 228 224 254 192 259 192 222 191 164 224 254 318 230 199 221 234 244 241 255 248 204 263 52 91 131 167 162 165 170 161
120 141 1 3 91 283 138 238 238 217 203 184 198 146 214 253 244 230 216 251 23 229 2 353 239 200 220 220 159 200 218 226 224 232 242 238 252 247 200 198 187 196 173 174 175
96 198 93 178 229 220 182 137 194 216 242 243 212 207 189 236 254 240 234 202 260 247 212 123 243 305 279 271 273 263 223 224 227 235 230 241 248 245 251 252 206 194 165 172 185
157 170 170 138 199 187 202 218 196 208 163 228 223 199 211 212 215 100 34 14 61 274 196 174 242 240 266 267 262 272 270 256 237 235 242 254 260 251 240 263 146 171 176 192 193
203 75 269 160 174 169 199 210 214 209 210 190 206 236 281 236 274 245 248 220 208 204 302 292 231 197 242 242 263 252 235 242 245 255 239 238 247 257 254 250 246 187 191 196 200